Погода Янги-Юган

Погода Янги-Юган : погода сейчас, прогноз погоды и архив. Всё, что Вы хотите узнать о погоде Янги-Юган!

Хотите узнать прогноз погоды Янги-Юган? Тогда Вам сюда: Погода Янги-Юган

Поиск расширенной информации на нашем сайте:

Другие новости

Новости СМИ2

Главная страница сайта

Новости сайта

03.07.2017

Напоминаем, что на нашем специализированном сайте Метеоцентр.Азия вы можете получить высокодетализированные автоматические прогнозы погоды по пунктам России, СНГ и мира в авиационном формате (включающие направление и скорость ветра, видимость, явления погоды, количество и форму облачности, нижнюю и верхнюю границу облачности).


Погода Янги-Юган - сегодня

Время (UTC), дата Ветер
(°,м/с) 
Видим.   Явления Облачность Т
(°С)
Тd
(°С)
f(%) Тe
(°С)
Pmin
(гПа)
dP
(гПа)
Po
(мм)
O2
(г/м3)
Тmin Tmax R s Состояние
почвы
03 21.02.18 050 (СВ) 20000 м  слаб. снег  10/0 средняя, верхняя 
[As op|Cs]
-33.3 -37.8 64 -34  1029.4  -0.1  768  355  -34.6    0.2  45  равномерный
сухой снег
100% 
06 21.02.18 060 (СВ) н/о    н/о 
-30.5 -35.2 64 -34  1029.4  768  350           
09 21.02.18 070 (В) 20000 м    6/0 верхняя 
[Cs]
-27.5 -32.6 62 -33  1028.9  -1.1  767  346           
12 21.02.18 060 (СВ) н/о    н/о 
-28.3 -32.8 65 -32  1028.4  -0.6  768  347           
15 21.02.18 050 (СВ) 20000 м  слаб. снег  10/0 верхняя 
[Cs]
-28.5 -32.5 69 -32  1028.1  -0.3  767  347           
18 21.02.18 060 (СВ) 20000 м  {снег}  ясно 
-28 -31.6 71 -33  1027.6  -0.5  767  346           
21 21.02.18 040 (СВ) 20000 м    ясно 
-29.2 -33 70 -30  1027.6  767  348           
00 22.02.18 040 (СВ) 20000 м    ясно 
-30.7 -34.7 68 -36  1026.7  -0.8  766  350           
03 22.02.18 040 (СВ) 20000 м    6/0 верхняя 
[Cs]
-31 -35.2 67 -37  1026.1  -0.7  766  350  -31      45  равномерный
сухой снег
100% 
06 22.02.18 040 (СВ) н/о    н/о 
-28.9 -33 68 -34  1025.9  -0.2  766  347  -31.3         
09 22.02.18 430 () 20000 м    10/0 верхняя 
[Cs]
-27.2 -31.4 67 -32  1025.6  -0.3  765  344           
12 22.02.18 040 (СВ) н/о    н/о 
-28.1 -32.1 68 -33  1025.4  765  346           
15 22.02.18 040 (СВ) 20000 м  ледяные иглы  ясно 
-29.5 -33.5 68 -35  1025.6  765  348           
18 22.02.18 030 (СВ) 20000 м  ледяные иглы{снег}  ясно 
-30.5 -34.4 69 -36  1026.2  0.7  766  349           
21 22.02.18 030 (СВ) 20000 м  слаб. снег  10/0 верхняя 
[Cs]
-30.1 -34 69 -36  1025.8  -0.4  766  349           
00 23.02.18 040 (СВ) 20000 м  слаб. снег  10/0 верхняя 
[Cs]
-29 -32.9 69 -33  1025.8  766  347           
03 23.02.18 030 (СВ) 20000 м  слаб. снег  10/0 средняя 
[As op]
-26.5 -30.1 72 -30  1025.5  -0.3  765  343  -30.7    0.0  44  равномерный
сухой снег
100% 
06 23.02.18 020 (С) 20000 м  {снег}  10/0 средняя 
[As trans]
-26.1 -29.8 71 -29  1024.8  -0.7  765  343           
09 23.02.18 020 (С) 20000 м    10/0 средняя 
[As trans]
-24.8 -28.5 71 -28  1024.3  -0.4  765  341           
12 23.02.18 010 (С) 20000 м  слаб. снег  10/0 средняя 
[As op]
-22.7 -26.3 72 -26  1023.5  -0.8  764  338           
15 23.02.18 010 (С) 20000 м  слаб. снег  10/0 средняя 
[As op]
-21.6 -25 74 -25  1022  -1.4  763  336    -21.5  0.2     
18 23.02.18 010 (С) 20000 м  слаб. снег  10/4 300 м средняя 
[St|As op]
-20.2 -23 78 -23  1021.1  -0.9  762  333           
21 23.02.18 010 (С) 20000 м  слаб. снег  10/3 300 м средняя 
[St|As op]
-20 -23.3 75 -24  1020.3  -0.8  762  333           
00 24.02.18 020 (С) 20000 м  позёмок{снег}  10/0 средняя 
[Ac As]
-27 -31.1 68 -34  1021  0.5  762  343           
03 24.02.18 020 (С) 20000 м  позёмок  10/0 средняя, верхняя 
[Ac trans|Ci sp]
-29.4 -33.7 66 -35  1021.5  0.5  762  346  -29.5    0.3  45  равномерный
сухой снег
100% 
Время (UTC), дата Ветер
(°,м/с) 
Видим.   Явления Облачность Т
(°С)
Тd
(°С)
f(%) Тe
(°С)
Pmin
(гПа)
dP
(гПа)
Po
(мм)
O2
(г/м3)
Тmin Tmax R s Состояние
почвы

Для получения пояснительной информации подведите курсор к названию столбца.

ПОГОДА Янги-Юган - архив

Всё, что Вы хотите узнать о погоде Янги-Юган - удобно и подробно!

Выберите нужную дату (начиная с 1 января 2015* года) и нажмите кнопку "Найти".
Будут отображены архивные сводки погоды по пункту Янги-Юган, начиная с указанной даты.


Отображать данные в формате CSV (для использования в таблицах Excel)


Внимание! Наш архив погоды предназначен исключительно для личного некоммерческого использования в познавательных целях. Если Вам необходимы официальные справки о состоянии погоды (для производственных, юридических, коммерческих и т.п. целей), обращайтесь в органы Росгидромета.

*Примечание: данная дата относится к архиву по метеостанциям СССР (Россия, СНГ, Балтия).
Архив по метеостанциям Зарубежной Европы и Азии (кроме Китая) хранится 10 дней, по другим регионам земного шара (Китай, Африка, Америка, Австралия, Океания) - 1 день.

Янги-Юган - район местоположения метеостанции


Название, широта, долгота, высота метеостанции:
Янги-Юган 66.1°ш. 68.7°д. 40 м над ур. моря [Российская Федерация]

Дополнительная информация

В oтличие oт бoльшинства пoгoдных сайтoв мы публикуем пoдрoбную метеoинфoрмацию в детальнoм прoфессиoнальнoм фoрмате.

Характеристики температуры и влажнoсти вoздуха измеряются на высoте 2 м в тени вдали oт зданий и деревьев.
Скoрoсть ветра измеряется на высoте 10 м (на урoвне рoста челoвека скoрoсть ветра ниже в 1.5-2 раза). Если метеoстанция нахoдится в гoрoде или в лесу, тo скoрoсть ветра занижена на 2-4 м/с пo сравнению с oткрытым местoм. Скoрoсть ветра над акватoриями крупных рек и oзёр, а также на вершинах хoлмoв на 2-5 м/с выше, чем в oбычных услoвиях.
Атмoсфернoе давление в разных тoчках местнoсти мoжет значительнo oтличаться oт давления на метеoстанции, в зависимoсти oт услoвий рельефа (при пoдъёме на 10 м давление пoнижается примернo на 1 мм рт.ст.).